sat.trackr.live / text

‹ back to catalog

BUFENG 1A

NORAD 44310 · 2019-032A

PAYLOAD ACTIVE UNKNOWN

§ Identity

Operator
Country
PRC
Launch date
2019-06-05
Launch site
YSLA
Launch vehicle
Mass (kg)
RCS (m²)

External: N2YO · Heavens-Above · Gunter

§ Orbital elements

Epoch: 2026-09-20T04:38:53.958912Z

Period
94.12 min
Inclination
44.9690°
Eccentricity
0.0009236
Mean motion
15.30032422 rev/d
Perigee alt
469.4 km
Apogee alt
482.0 km
Semi-major
6,853.9 km
B*
2.5942e-4
RAAN
256.6120°
Arg perigee
82.5985°
Mean anomaly
277.5948°
Rev number
40,173

§ Raw data

BUFENG 1A1 44310U 19032A   26263.19368008  .00007395  00000+0  25942-3 0  99992 44310  44.9690 256.6120 0009236  82.5985 277.5948 15.30032422401734

JSON: /api/v1/satellites/44310 · /tle

For live sub-satellite position, see the globe view (requires WebGL).

§ Visibility from observer

Set your observer location to see the next 7 days of passes ≥ 10°. The values pass through the URL so the page stays shareable.

No JS? Fill the form by hand. The geolocation button needs JavaScript.